Weather History for KDEC - September, 2012

Change the Weather History Date:

Saturday, September 8, 2012

  Actual Average Record
Temperature  
Mean Temperature 65 °F 70 °F  
Max Temperature 73 °F 81 °F - ()
Min Temperature 56 °F 58 °F - ()
Degree Days  
Heating Degree Days 0 1  
Month to date heating degree days 0 2  
Since 1 July heating degree days 0 8  
Cooling Degree Days 0 5  
Month to date cooling degree days 90 48  
Year to date cooling degree days 1404 966  
Growing Degree Days 14 (Base 50)    
Moisture  
Dew Point 52 °F    
Average Humidity 69    
Maximum Humidity 93    
Minimum Humidity 44    
Precipitation  
Precipitation 0.00 in 0.12 in - ()
Month to date precipitation 4.72 1.01  
Year to date precipitation 17.71 27.32  
Sea Level Pressure  
Sea Level Pressure 29.93 in    
Wind  
Wind Speed 10 mph (NW)    
Max Wind Speed 18 mph    
Max Gust Speed 25 mph    
Visibility 10 miles    
Events      
T = Trace of Precipitation, MM = Missing Value Source: NWS Daily Summary

Daily Weather History Graph

Daily Weather History Graph

Search for Another Location

Airport or City:

Trip Planner

Search our weather history database for the weather conditions in past years. The results will help you decide how hot, cold, wet, or windy it might be!

Date:

Astronomy

Sep. 08, 2012 Rise Set
Actual Time 6:30 AM CDT 7:14 PM CDT
Civil Twilight 6:03 AM CDT 7:42 PM CDT
Nautical Twilight 5:30 AM CDT 8:14 PM CDT
Astronomical Twilight 4:57 AM CDT 8:47 PM CDT
Moon No Moon Rise 2:11 PM CDT (9/8)
Length of Visible Light 13h 38m
Length of Day
12h 44m
Waning Gibbous, 48% of the Moon is Illuminated
Sep 8
Waning Gibbous
Sep 15
New
Sep 22
First Quarter
Sep 29
Full
Oct 8
Last Quarter

Hourly Weather History & Observations

Time (CDT) Temp. Dew Point Humidity Pressure Visibility Wind Dir Wind Speed Gust Speed Precip Events Conditions
12:54 AM 62.1 °F 55.9 °F 80% 29.87 in 10.0 mi North 17.3 mph - N/A   Overcast
1:54 AM 60.1 °F 55.9 °F 86% 29.88 in 10.0 mi NW 13.8 mph - N/A   Clear
2:54 AM 57.9 °F 55.9 °F 93% 29.88 in 10.0 mi North - - N/A   Clear
3:54 AM 57.9 °F 55.9 °F 93% 29.88 in 10.0 mi NW 12.7 mph - N/A   Clear
4:38 AM 57.2 °F 55.4 °F 94% 29.89 in 10.0 mi NW 13.8 mph 20.7 mph N/A   Partly Cloudy
4:54 AM 57.0 °F 55.9 °F 96% 29.89 in 10.0 mi NW 13.8 mph - N/A   Partly Cloudy
5:54 AM 55.9 °F 54.0 °F 93% 29.90 in 10.0 mi NW 9.2 mph 17.3 mph N/A   Clear
6:54 AM 55.9 °F 53.1 °F 90% 29.92 in 10.0 mi NNW 15.0 mph 19.6 mph N/A   Clear
7:54 AM 57.0 °F 53.1 °F 87% 29.95 in 10.0 mi NNW 10.4 mph - N/A   Clear
8:54 AM 59.0 °F 53.1 °F 81% 29.97 in 10.0 mi NW 11.5 mph - N/A   Clear
9:54 AM 62.1 °F 52.0 °F 70% 29.98 in 10.0 mi NNW 12.7 mph - N/A   Clear
10:54 AM 64.9 °F 51.1 °F 61% 29.99 in 10.0 mi NNW 13.8 mph 25.3 mph N/A   Partly Cloudy
11:54 AM 66.9 °F 50.0 °F 54% 29.98 in 10.0 mi NNW 12.7 mph 20.7 mph N/A   Partly Cloudy
12:54 PM 69.1 °F 48.9 °F 49% 29.97 in 10.0 mi NW 8.1 mph 20.7 mph N/A   Clear
1:54 PM 71.1 °F 50.0 °F 47% 29.96 in 10.0 mi NW 10.4 mph 19.6 mph N/A   Partly Cloudy
2:54 PM 72.0 °F 50.0 °F 46% 29.94 in 10.0 mi WNW 10.4 mph - N/A   Clear
3:54 PM 72.0 °F 50.0 °F 46% 29.93 in 10.0 mi WNW 11.5 mph - N/A   Partly Cloudy
4:54 PM 72.0 °F 48.9 °F 44% 29.92 in 10.0 mi WNW 10.4 mph 16.1 mph N/A   Partly Cloudy
5:54 PM 72.0 °F 48.0 °F 43% 29.92 in 10.0 mi West 13.8 mph 18.4 mph N/A   Clear
6:54 PM 70.0 °F 46.9 °F 44% 29.92 in 10.0 mi WNW 8.1 mph - N/A   Clear
7:54 PM 66.0 °F 48.9 °F 54% 29.93 in 10.0 mi West 6.9 mph - N/A   Clear
8:54 PM 64.9 °F 50.0 °F 58% 29.95 in 10.0 mi West 4.6 mph - N/A   Clear
9:54 PM 63.0 °F 50.0 °F 63% 29.94 in 10.0 mi WSW 4.6 mph - N/A   Clear
11:54 PM 57.9 °F 51.1 °F 78% 29.91 in 10.0 mi SW 8.1 mph - N/A   Clear